This demonstration page uses our WeatherBlox Daily Observations layout. Learn more.

Left ArrowRight Arrow

Hourly Observations for July 31, 2015

Temp ( °F °C ) Dew Point ( °F °C ) Humidity (%) Winds ( mph kmh ) Pressure ( in mb ) Visibility ( mi km ) Precip ( " mm )
12:53 am 00:53 Clear 84 28.9 51 10.6 32 32 ESE 8 13 29.97 1015 10 16 0.00 0.00
1:53 am 01:53 Clear 83 28.3 51 10.6 33 33 ESE 8 13 29.98 1015 10 16 0.00 0.00
2:53 am 02:53 Clear 80 26.7 52 11.1 38 38 ESE 8 13 29.98 1015 10 16 0.00 0.00
3:53 am 03:53 Clear 79 26.1 50 10 36 36 ESE 9 15 29.98 1015 10 16 0.00 0.00
4:53 am 04:53 Clear 78 25.6 50 10 37 37 SE 7 11 29.98 1015 10 16 0.00 0.00
5:53 am 05:53 Clear 73 22.8 50 10 44 44 E 6 9 29.98 1015 10 16 0.00 0.00
6:53 am 06:53 Clear 71 21.7 50 10 47 47 E 7 11 30.00 1016 10 16 0.00 0.00
7:53 am 07:53 Sunny 75 23.9 50 10 41 41 E 5 7 30.01 1016 10 16 0.00 0.00
8:53 am 08:53 Sunny 82 27.8 51 10.6 34 34 ESE 6 9 30.02 1017 10 16 0.00 0.00
9:53 am 09:53 Sunny 87 30.6 51 10.6 29 29 SE 10 17 30.02 1017 10 16 0.00 0.00
10:53 am 10:53 Sunny 91 32.8 52 11.1 26 26 S 8 13 30.01 1016 10 16 0.00 0.00
11:53 am 11:53 Sunny 93 33.9 52 11.1 25 25 S 9 15 30.01 1016 10 16 0.00 0.00
12:53 pm 12:53 Sunny 95 35 52 11.1 23 23 VRB 7 11 30.00 1016 10 16 0.00 0.00
1:53 pm 13:53 Sunny 96 35.6 53 11.7 23 23 S 5 7 29.97 1015 10 16 0.00 0.00
2:53 pm 14:53 Sunny 99 37.2 52 11.1 21 21 SE 8 13 29.95 1014 10 16 0.00 0.00
3:53 pm 15:53 Mostly Cloudy 98 36.7 51 10.6 20 20 SE 13 20 29.92 1013 10 16 0.00 0.00
4:53 pm 16:53 Mostly Sunny 100 37.8 50 10 18 18 undefined N/A 29.88 1012 10 16 0.00 0.00
5:53 pm 17:53 Mostly Sunny 98 36.7 51 10.6 20 20 S 7 11 29.88 1012 10 16 0.00 0.00
6:53 pm 18:53 Sunny 99 37.2 51 10.6 20 20 SE 13 20 29.86 1011 10 16 0.00 0.00
7:53 pm 19:53 Partly Cloudy 96 35.6 52 11.1 23 23 SSE 8 13 29.85 1011 10 16 0.00 0.00
8:53 pm 20:53 Mostly Clear 93 33.9 52 11.1 25 25 SE 6 9 29.87 1011 10 16 0.00 0.00
9:53 pm 21:53 Partly Cloudy 93 33.9 53 11.7 26 26 ESE 8 13 29.88 1012 10 16 0.00 0.00
10:53 pm 22:53 Clear 90 32.2 53 11.7 28 28 E 6 9 29.89 1012 10 16 0.00 0.00
11:53 pm 23:53 Mostly Cloudy 89 31.7 53 11.7 29 29 ESE 13 20 29.92 1013 10 16 0.00 0.00

Powered by AerisWeather